TimePST,TemperatureF,Dew PointF,Humidity,Sea Level PressureIn,VisibilityMPH,Wind Direction,Wind SpeedMPH,Gust SpeedMPH,PrecipitationIn,Events,Conditions,WindDirDegrees,DateUTC
12:52 AM,57.0,35.1,44,29.86,10.0,West,8.1,-,N/A,,Clear,280,2013-03-07 08:52:00
1:52 AM,57.0,35.1,44,29.86,10.0,West,9.2,-,N/A,,Clear,280,2013-03-07 09:52:00
2:52 AM,57.0,36.0,45,29.85,10.0,West,9.2,-,N/A,,Clear,260,2013-03-07 10:52:00
3:52 AM,57.0,37.9,49,29.86,10.0,WSW,8.1,-,N/A,,Clear,250,2013-03-07 11:52:00
4:52 AM,54.0,37.0,53,29.88,10.0,SSW,5.8,-,N/A,,Clear,210,2013-03-07 12:52:00
5:52 AM,48.0,37.0,66,29.90,10.0,NNW,6.9,-,N/A,,Clear,330,2013-03-07 13:52:00
7:52 AM,57.0,39.0,51,29.92,10.0,NW,3.5,-,N/A,,Clear,310,2013-03-07 15:52:00
8:52 AM,62.1,39.0,43,29.93,10.0,Calm,Calm,-,N/A,,Clear,0,2013-03-07 16:52:00
9:52 AM,63.0,39.0,41,29.93,10.0,Variable,3.5,-,N/A,,Clear,0,2013-03-07 17:52:00
10:52 AM,66.0,37.0,34,29.93,10.0,Calm,Calm,-,N/A,,Clear,0,2013-03-07 18:52:00
11:52 AM,69.1,36.0,30,29.90,10.0,Calm,Calm,-,N/A,,Clear,0,2013-03-07 19:52:00
12:52 PM,73.9,34.0,23,29.86,10.0,South,13.8,23.0,N/A,,Clear,190,2013-03-07 20:52:00
1:52 PM,73.0,34.0,24,29.84,10.0,SSW,12.7,23.0,N/A,,Clear,200,2013-03-07 21:52:00
2:52 PM,73.0,37.0,27,29.83,10.0,SW,16.1,20.7,N/A,,Clear,220,2013-03-07 22:52:00
3:52 PM,71.1,39.0,31,29.83,10.0,WSW,19.6,-,N/A,,Clear,240,2013-03-07 23:52:00
4:52 PM,69.1,37.9,32,29.84,10.0,WSW,13.8,-,N/A,,Clear,250,2013-03-08 00:52:00
5:52 PM,66.9,37.0,33,29.84,10.0,West,15.0,-,N/A,,Clear,260,2013-03-08 01:52:00
6:52 PM,66.0,36.0,33,29.85,10.0,WSW,21.9,26.5,N/A,,Clear,250,2013-03-08 02:52:00
7:52 PM,64.0,36.0,35,29.84,10.0,WSW,10.4,-,N/A,,Clear,240,2013-03-08 03:52:00
8:52 PM,63.0,35.1,35,29.84,10.0,WSW,16.1,-,N/A,,Clear,240,2013-03-08 04:52:00
10:52 PM,61.0,34.0,36,29.83,10.0,SW,8.1,-,N/A,,Partly Cloudy,220,2013-03-08 06:52:00
11:52 PM,59.0,33.1,38,29.81,10.0,SSW,5.8,-,N/A,,Scattered Clouds,200,2013-03-08 07:52:00